Location: Ottawa
(45.4170°N, 75.7000°W)
Time: 07:23:29
(UTC-05:00)

ISS - Pass Details

Date: 16 February 2026
Orbit: 416 x 427 km, 51.6° (Epoch: 6 March)

Event Time Altitude Azimuth Distance (km) Brightness Sun altitude
Exits shadow 05:02:48 46° 147° (SSE) 570 -3.0 -21.7°
Maximum altitude 05:02:50 46° 144° (SE) 569 -3.0 -21.6°
Drops below altitude 10° 05:06:04 10° 70° (ENE) 1,494 0.1 -21.1°
Sets 05:08:12 0° 64° (ENE) 2,359 1.2 -20.7°
